This is the latest recevied weather packets stored in our database for station/object KI7JYE. If no packets are shown the sender has not sent any weather packets the latest 1 day(s).
| Time | Temp. | Humidity | Pressure | Rain* | Wind** | Luminosity | Snow |
|---|---|---|---|---|---|---|---|
| 1778036206 | 17.22° C | 73% | 1014.3 hPa | 0 mm | 0.89 m/s, 201° | 16 W/m² | - |
| 1778035902 | 17.78° C | 73% | 1014.2 hPa | 0 mm | 0.45 m/s, 213° | 19 W/m² | - |
| 1778035600 | 17.78° C | 73% | 1013.9 hPa | 0 mm | 0.45 m/s, 212° | 21 W/m² | - |
| 1778035296 | 17.78° C | 72% | 1014.1 hPa | 0 mm | 0.45 m/s, 198° | 25 W/m² | - |
| 1778034993 | 18.33° C | 70% | 1014 hPa | 0 mm | 1.34 m/s, 189° | 29 W/m² | - |
| 1778034690 | 18.89° C | 69% | 1013.8 hPa | 0 mm | 0.45 m/s, 262° | 33 W/m² | - |
| 1778034387 | 18.89° C | 68% | 1013.9 hPa | 0 mm | 0 m/s | 35 W/m² | - |
| 1778034084 | 18.89° C | 69% | 1013.7 hPa | 0 mm | 0 m/s | 39 W/m² | - |
| 1778033782 | 18.89° C | 67% | 1013.9 hPa | 0 mm | 0 m/s | 42 W/m² | - |
| 1778033479 | 18.89° C | 68% | 1014 hPa | 0 mm | 0.45 m/s, 252° | 47 W/m² | - |
| 1778033176 | 18.89° C | 68% | 1014.2 hPa | 0 mm | 0.45 m/s, 37° | 52 W/m² | - |
| 1778032874 | 18.89° C | 68% | 1013.8 hPa | 0 mm | 1.34 m/s, 145° | 53 W/m² | - |
| 1778032571 | 18.89° C | 68% | 1014 hPa | 0 mm | 0 m/s | 62 W/m² | - |
| 1778032268 | 18.89° C | 66% | 1013.9 hPa | 0 mm | 0.89 m/s, 219° | 98 W/m² | - |
| 1778031966 | 18.89° C | 67% | 1013.8 hPa | 0 mm | 0.89 m/s, 215° | 106 W/m² | - |
| 1778031661 | 18.89° C | 67% | 1014.1 hPa | 0 mm | 0.45 m/s, 249° | 119 W/m² | - |
| 1778031359 | 18.89° C | 68% | 1013.7 hPa | 0 mm | 0 m/s | 139 W/m² | - |
| 1778031056 | 19.44° C | 66% | 1013.9 hPa | 0 mm | 0.45 m/s, 222° | 162 W/m² | - |
| 1778030752 | 18.89° C | 68% | 1014 hPa | 0 mm | 1.34 m/s, 171° | 177 W/m² | - |
| 1778030448 | 18.33° C | 69% | 1014 hPa | 0 mm | 1.79 m/s, 140° | 212 W/m² | - |
| 1778030146 | 18.33° C | 70% | 1013.9 hPa | 0 mm | 0 m/s | 200 W/m² | - |
| 1778029837 | 18.33° C | 69% | 1013.8 hPa | 0 mm | 1.34 m/s, 194° | 138 W/m² | - |
| 1778029537 | 19.44° C | 67% | 1013.9 hPa | 0 mm | 0.45 m/s, 210° | 160 W/m² | - |
| 1778029233 | 20° C | 65% | 1014 hPa | 0 mm | 0 m/s | 151 W/m² | - |
| 1778028930 | 18.33° C | 69% | 1013.9 hPa | 0 mm | 0.45 m/s, 254° | 230 W/m² | - |
* Rain latest hour (hover to see other rain measurements)
** Current wind speed in m/s (hover to see current wind gust speed)